TimeCST,TemperatureF,Dew PointF,Humidity,Sea Level PressureIn,VisibilityMPH,Wind Direction,Wind SpeedMPH,Gust SpeedMPH,PrecipitationIn,Events,Conditions,WindDirDegrees,DateUTC
12:15 AM,12.2,8.6,85,30.04,5.0,NNW,15.0,-,N/A,,Overcast,330,2014-02-16 06:15:00
12:35 AM,12.2,8.6,85,30.05,9.0,NNW,13.8,-,N/A,,Overcast,330,2014-02-16 06:35:00
12:55 AM,12.2,8.6,85,30.06,9.0,NW,11.5,-,N/A,,Overcast,320,2014-02-16 06:55:00
1:15 AM,12.2,8.6,85,30.06,9.0,NW,13.8,-,N/A,,Overcast,320,2014-02-16 07:15:00
1:35 AM,12.2,8.6,85,30.07,10.0,NW,13.8,-,N/A,,Overcast,320,2014-02-16 07:35:00
1:55 AM,12.2,8.6,85,30.08,10.0,NW,12.7,-,N/A,,Overcast,320,2014-02-16 07:55:00
2:15 AM,12.2,8.6,85,30.09,10.0,NNW,12.7,-,N/A,,Overcast,330,2014-02-16 08:15:00
2:35 AM,12.2,6.8,79,30.11,10.0,NW,13.8,-,N/A,,Overcast,320,2014-02-16 08:35:00
2:55 AM,12.2,8.6,85,30.11,10.0,NW,13.8,-,N/A,,Overcast,320,2014-02-16 08:55:00
3:15 AM,12.2,6.8,79,30.12,10.0,NW,9.2,-,N/A,,Overcast,320,2014-02-16 09:15:00
3:35 AM,10.4,6.8,85,30.11,10.0,NW,12.7,16.1,N/A,,Overcast,320,2014-02-16 09:35:00
3:55 AM,10.4,6.8,85,30.11,10.0,NNW,10.4,-,N/A,,Overcast,330,2014-02-16 09:55:00
4:15 AM,10.4,5.0,79,30.11,10.0,NNW,13.8,-,N/A,,Overcast,330,2014-02-16 10:15:00
4:35 AM,8.6,3.2,79,30.11,10.0,NW,10.4,-,N/A,,Overcast,320,2014-02-16 10:35:00
4:55 AM,8.6,5.0,85,30.11,10.0,NNW,11.5,-,N/A,,Overcast,330,2014-02-16 10:55:00
5:15 AM,8.6,3.2,79,30.12,10.0,NNW,9.2,-,N/A,,Overcast,340,2014-02-16 11:15:00
5:35 AM,8.6,3.2,79,30.14,10.0,NW,8.1,-,N/A,,Overcast,310,2014-02-16 11:35:00
5:55 AM,8.6,3.2,79,30.15,10.0,NNW,10.4,-,N/A,,Overcast,330,2014-02-16 11:55:00
6:15 AM,8.6,3.2,79,30.16,10.0,NNW,8.1,-,N/A,,Overcast,330,2014-02-16 12:15:00
6:35 AM,8.6,3.2,79,30.16,10.0,NNW,6.9,-,N/A,,Overcast,330,2014-02-16 12:35:00
6:55 AM,8.6,3.2,79,30.18,10.0,NW,9.2,-,N/A,,Overcast,310,2014-02-16 12:55:00
7:15 AM,8.6,3.2,79,30.18,10.0,NW,6.9,-,N/A,,Overcast,310,2014-02-16 13:15:00
7:35 AM,8.6,3.2,79,30.19,10.0,NW,5.8,-,N/A,,Overcast,310,2014-02-16 13:35:00
7:55 AM,8.6,3.2,79,30.20,7.0,NW,5.8,-,N/A,,Overcast,310,2014-02-16 13:55:00
8:15 AM,8.6,3.2,79,30.21,7.0,NW,6.9,-,N/A,,Overcast,310,2014-02-16 14:15:00
8:35 AM,8.6,3.2,79,30.23,5.0,NW,8.1,-,N/A,,Overcast,320,2014-02-16 14:35:00
8:55 AM,8.6,5.0,85,30.22,5.0,NW,5.8,-,N/A,,Overcast,320,2014-02-16 14:55:00
9:15 AM,10.4,5.0,79,30.22,6.0,NNW,4.6,-,N/A,,Overcast,330,2014-02-16 15:15:00
9:35 AM,10.4,5.0,79,30.20,10.0,North,5.8,-,N/A,,Mostly Cloudy,360,2014-02-16 15:35:00
9:55 AM,12.2,6.8,79,30.20,10.0,NNE,5.8,-,N/A,,Clear,30,2014-02-16 15:55:00
10:15 AM,10.4,5.0,79,30.18,10.0,ENE,5.8,-,N/A,,Clear,70,2014-02-16 16:15:00
10:35 AM,10.4,6.8,85,30.18,10.0,ENE,6.9,-,N/A,,Clear,70,2014-02-16 16:35:00
10:55 AM,12.2,6.8,79,30.16,10.0,ENE,9.2,-,N/A,,Clear,70,2014-02-16 16:55:00
11:15 AM,12.2,8.6,85,30.16,10.0,East,5.8,-,N/A,,Clear,90,2014-02-16 17:15:00
11:35 AM,12.2,8.6,85,30.16,10.0,East,5.8,-,N/A,,Clear,100,2014-02-16 17:35:00
11:55 AM,14.0,8.6,79,30.14,10.0,East,9.2,-,N/A,,Clear,100,2014-02-16 17:55:00
12:15 PM,15.8,10.4,79,30.12,10.0,ESE,10.4,-,N/A,,Clear,110,2014-02-16 18:15:00
12:35 PM,15.8,10.4,79,30.13,10.0,SE,12.7,-,N/A,,Clear,130,2014-02-16 18:35:00
12:55 PM,15.8,10.4,79,30.12,10.0,SE,13.8,-,N/A,,Clear,130,2014-02-16 18:55:00
1:15 PM,15.8,8.6,73,30.12,10.0,SE,11.5,-,N/A,,Clear,140,2014-02-16 19:15:00
1:35 PM,15.8,10.4,79,30.11,10.0,SE,12.7,-,N/A,,Partly Cloudy,140,2014-02-16 19:35:00
1:55 PM,15.8,10.4,79,30.10,10.0,SE,13.8,-,N/A,,Partly Cloudy,140,2014-02-16 19:55:00
2:15 PM,17.6,10.4,73,30.09,10.0,SSE,13.8,-,N/A,,Mostly Cloudy,150,2014-02-16 20:15:00
2:35 PM,17.6,10.4,73,30.08,10.0,SE,12.7,-,N/A,,Mostly Cloudy,140,2014-02-16 20:35:00
2:55 PM,17.6,10.4,73,30.07,10.0,SE,15.0,-,N/A,,Overcast,140,2014-02-16 20:55:00
3:15 PM,17.6,12.2,79,30.06,10.0,SSE,18.4,-,N/A,,Overcast,150,2014-02-16 21:15:00
3:35 PM,17.6,10.4,73,30.06,10.0,SE,17.3,-,N/A,,Overcast,140,2014-02-16 21:35:00
3:55 PM,17.6,12.2,79,30.06,10.0,SE,16.1,-,N/A,,Overcast,140,2014-02-16 21:55:00
4:15 PM,17.6,12.2,79,30.05,10.0,SE,16.1,-,N/A,,Overcast,140,2014-02-16 22:15:00
4:35 PM,17.6,12.2,79,30.04,10.0,SE,18.4,-,N/A,,Overcast,140,2014-02-16 22:35:00
4:55 PM,17.6,12.2,79,30.04,10.0,SE,19.6,-,N/A,,Overcast,140,2014-02-16 22:55:00
5:15 PM,17.6,12.2,79,30.03,10.0,SE,18.4,-,N/A,,Overcast,140,2014-02-16 23:15:00
5:35 PM,17.6,12.2,79,30.02,10.0,SE,18.4,-,N/A,,Mostly Cloudy,140,2014-02-16 23:35:00
5:55 PM,17.6,12.2,79,30.02,10.0,SE,18.4,-,N/A,,Mostly Cloudy,140,2014-02-16 23:55:00
6:15 PM,17.6,12.2,79,30.01,10.0,SE,17.3,27.6,N/A,,Overcast,140,2014-02-17 00:15:00
6:35 PM,17.6,12.2,79,30.01,10.0,SE,19.6,26.5,N/A,,Overcast,140,2014-02-17 00:35:00
6:55 PM,17.6,12.2,79,30.00,10.0,SE,21.9,-,N/A,,Overcast,140,2014-02-17 00:55:00
7:15 PM,17.6,12.2,79,30.00,10.0,SSE,18.4,25.3,N/A,,Mostly Cloudy,150,2014-02-17 01:15:00
7:35 PM,17.6,12.2,79,29.98,10.0,SE,23.0,-,N/A,,Mostly Cloudy,140,2014-02-17 01:35:00
7:55 PM,17.6,12.2,79,29.99,10.0,SSE,18.4,-,N/A,,Scattered Clouds,150,2014-02-17 01:55:00
8:15 PM,17.6,12.2,79,29.98,10.0,SSE,23.0,27.6,N/A,,Clear,150,2014-02-17 02:15:00
8:35 PM,19.4,12.2,74,29.98,10.0,SSE,23.0,-,N/A,,Mostly Cloudy,150,2014-02-17 02:35:00
8:55 PM,19.4,12.2,74,29.96,8.0,SSE,24.2,28.8,N/A,,Overcast,150,2014-02-17 02:55:00
9:15 PM,19.4,12.2,74,29.96,7.0,SSE,23.0,32.2,N/A,,Scattered Clouds,150,2014-02-17 03:15:00
9:35 PM,19.4,14.0,80,29.95,8.0,SSE,23.0,-,N/A,,Clear,150,2014-02-17 03:35:00
9:55 PM,19.4,14.0,80,29.94,7.0,SSE,24.2,-,N/A,,Clear,150,2014-02-17 03:55:00
10:15 PM,19.4,14.0,80,29.94,5.0,SSE,25.3,33.4,N/A,,Scattered Clouds,150,2014-02-17 04:15:00
10:35 PM,19.4,15.8,86,29.90,4.0,SSE,28.8,36.8,N/A,,Mostly Cloudy,150,2014-02-17 04:35:00
10:55 PM,19.4,15.8,86,29.91,4.0,SSE,28.8,36.8,N/A,,Scattered Clouds,150,2014-02-17 04:55:00
11:15 PM,19.4,15.8,86,29.90,5.0,SSE,27.6,34.5,N/A,,Scattered Clouds,150,2014-02-17 05:15:00
11:35 PM,19.4,15.8,86,29.90,3.0,SSE,24.2,36.8,N/A,,Mostly Cloudy,150,2014-02-17 05:35:00
11:55 PM,19.4,15.8,86,29.90,3.0,SSE,27.6,34.5,N/A,,Overcast,150,2014-02-17 05:55:00